Tracking 19576 objects as of 16-Feb-2019
HD Live streaming from Space Station
objects crossing your sky now

OPS 7323 (DMSP 5B F3)

Track OPS 7323 (DMSP 5B F3) now!
10-day predictions
OPS 7323 (DMSP 5B F3) is classified as:


NORAD ID: 6275
Int'l Code: 1972-089A
Perigee: 781.3 km
Apogee: 831.0 km
Inclination: 98.5 °
Period: 100.9 minutes
Semi major axis: 7177 km
RCS: 1.5352 m2 (large)
Launch date: November 9, 1972
Source: United States (US)
Launch site: AIR FORCE WESTERN TEST RANGE (AFWTR)
aabbcc
Your satellite tracking list
Your tracking list is empty




NASA's NSSDC Master Catalog

Two Line Element Set (TLE):
1  6275U 72089A   19047.18770815  .00000041  00000-0  33842-4 0  9993
2  6275  98.5016 255.2880 0034637 278.7438  80.9821 14.27819018402592
Source of the keplerian elements: AFSPC